Regional Weather Roundup
Issued by NWS

Home | Current Version | Previous Version | Graphics & Text | Print | Product List | Glossary On
Versions: 1 2 3 4 5 6 7 8 9 10 11 12 13 14 15 16 17 18 19 20 21 22 23 24 25 26 27 28 29 30 31 32 33 34 35 36 37 38 39 40 41 42 43 44 45 46 47 48 49 50
000
ASUS43 KIND 272109
RWRIN

WEATHER ROUNDUP FOR INDIANA
NATIONAL WEATHER SERVICE INDIANAPOLIS IN
500 PM EDT FRI MAR 27 2015

NOTE: "FAIR" INDICATES FEW OR NO CLOUDS BELOW 12,000 FEET WITH NO
SIGNIFICANT WEATHER AND/OR OBSTRUCTIONS TO VISIBILITY.

* - STATION DOES NOT REPORT WEATHER SUCH AS PRECIPITATION OR FOG.

+ - STATION NOT QUALITY CONTROLLED BY THE NATIONAL WEATHER SERVICE.
    USE DATA WITH CAUTION...ESPECIALLY DEWPOINT AND RELATIVE
    HUMIDITY OBSERVATIONS.

INZ001>003-010>013-019-020-272200-
NORTHWEST INDIANA

CITY           SKY/WX    TMP DP  RH WIND       PRES   REMARKS
GARY /AIRPORT/ MOSUNNY   30  23  74 N17G38    30.17S WCI  18
KNOX *+          N/A     28  -2  26 N18G24    30.11S WCI  16
LA PORTE +     CLOUDY    28  17  63 N22G28    30.12S WCI  14
MICHIGAN CITY+ LGT SNOW  27  16  63 N14G24    30.14S WCI  15
MONTICELLO +   CLOUDY    29  17  58 NW15G24   30.11R WCI  18
RENSSELAER +   CLOUDY    30  23  74 N20G25    30.13S WCI  18
VALPARAISO     CLOUDY    26  12  55 N14G22    30.13S WCI  14

$$

LMZ046-743>745-272200-
SOUTHERN LAKE MICHIGAN

STATION/POSITION TIME  TEMP WIND        PRES
                       AIR  DIR/SP/G
                 (UTC) (F)  (DEG/KT/KT) (MB)
BURNS HARBOR     2100   26  360/ 19/ 26 1021.3F
MICHIGAN CITY    2100   24  340/ 25/ 28   N/A

$$

INZ004-005-014>016-021>024-272200-
NORTH CENTRAL INDIANA

CITY           SKY/WX    TMP DP  RH WIND       PRES   REMARKS
ELKHART        PTSUNNY   28   3  34 NW14G25   30.09R WCI  17
GOSHEN         MOSUNNY   29   8  41 NW20G28   30.06S WCI  16
LOGANSPORT +   CLOUDY    30  12  47 NW12G23   30.10R WCI  21
PERU/GRISSOM   PTSUNNY   31  11  43 NW14G23   30.06S WCI  20
ROCHESTER +    PTSUNNY   32  12  43 NW17G23   30.09R WCI  21
SOUTH BEND     CLOUDY    26  13  57 N22       30.10F WCI  12
WARSAW +       MOSUNNY   30   9  40 NW14G28   30.07R WCI  20

$$

INZ006>009-017-018-025>027-272200-
NORTHEAST INDIANA

CITY           SKY/WX    TMP DP  RH WIND       PRES   REMARKS
ANGOLA *+      MOSUNNY   28   5  37 N7        30.02S WCI  21
AUBURN +       PTSUNNY   32   3  29 NW12G18   30.03F WCI  23
FORT WAYNE     PTSUNNY   32  12  43 N12       30.04S WCI  23
HUNTINGTON +   PTSUNNY   29   4  34 NW12      30.04F WCI  20

$$

INZ028-029-035-036-043>045-051>053-272200-
WEST CENTRAL INDIANA

CITY           SKY/WX    TMP DP  RH WIND       PRES   REMARKS
CRAWFORDSVL +  CLOUDY    30  11  44 MISG      30.09S
GREENCASTLE +  CLOUDY    32  14  47 N16       30.09R WCI  21
LAFAYETTE      CLOUDY    29  16  58 N22G28    30.12R WCI  15
TERRE HAUTE    CLOUDY    34  23  64 N12       30.11R WCI  25

$$

INZ030>032-037>040-046>048-054>057-064-065-272200-
CENTRAL INDIANA

CITY           SKY/WX    TMP DP  RH WIND       PRES   REMARKS
CP ATTERBURY + CLOUDY    34  18  51 NW16      30.07R WCI  23
COLUMBUS       PTSUNNY   32  16  51 N16       30.06S WCI  21
FISHERS *+     CLOUDY    30  18  59 NW15G21   30.07R WCI  19
FRANKFORT +    MOSUNNY   31  17  56 NW18      30.10S WCI  19
GREENWOOD *+   CLOUDY    32  16  51 NW15      30.07R WCI  22
INDIANAPOLIS   PTSUNNY   32  16  51 NW16G24   30.06S WCI  21
-EAGLE CREEK   CLOUDY    31  15  52 N16G24    30.07S WCI  20
KOKOMO *+        N/A     30  16  55 N14       30.07S WCI  20
MARION +       CLOUDY    29  15  55 N9        30.06R WCI  21
MT COMFORT *+  MOSUNNY   32   5  32 NW17G25   30.06S WCI  21
SHELBYVILLE    CLOUDY    33  19  56 N16       30.05S WCI  23
ZIONSVILLE +   CLOUDY    32  15  50 NW15      30.07S WCI  21

$$

INZ033-034-041-042-049-050-058-059-272200-
EAST CENTRAL INDIANA

CITY           SKY/WX    TMP DP  RH WIND       PRES   REMARKS
MUNCIE         CLOUDY    30  18  60 NW16      30.04S WCI  19

$$

INZ060-061-067>069-081>083-085>088-272200-
SOUTHWEST INDIANA

CITY           SKY/WX    TMP DP  RH WIND       PRES   REMARKS
EVANSVILLE     CLOUDY    40  21  46 N9        30.10S
HUNTINGBURG *+ MOSUNNY   37  21  52 N10G21    30.08S
WASHINGTON +   CLOUDY    36  22  55 NW17      30.08S

$$

INZ062-063-066-070>080-084-089>092-272200-
SOUTH CENTRAL AND SOUTHEAST INDIANA

CITY           SKY/WX    TMP DP  RH WIND       PRES   REMARKS
BEDFORD +      CLOUDY    34  19  55 N6        30.05  WCI  29
BLOOMINGTON    CLOUDY    34  22  61 N16       30.06S WCI  24
NORTH VERNON + CLOUDY    34  21  60 NW9G21    30.05S WCI  26
SEYMOUR +      CLOUDY    36  19  51 N12       30.06R

$$



USA.gov is the U.S. government's official web portal to all federal, state and local government web resources and services.